When you browse on this site, cookies collect data to enhance your experience and personalize the content and advertising you see.
Visit our Privacy Policy to learn more. By continuing to use the site, you agree to this use of cookies and data.
EN

Hourly Weather Lethem

Today, 14 July, Tuesday

Time Temperature Precipitation Wind Pressure Humidity
00:00 +26°C° 0.4 mm 2 mps 752 mmHg 88%
01:00 +25°C° 0.4 mm 2 mps 751 mmHg 89%
02:00 +25°C° 0 mm 2 mps 751 mmHg 90%
03:00 +25°C° 0.1 mm 2 mps 751 mmHg 91%
04:00 +25°C° 0.1 mm 2 mps 751 mmHg 92%
05:00 +24°C° 0.1 mm 1 mps 751 mmHg 93%
06:00 +26°C° 0 mm 1 mps 752 mmHg 89%
07:00 +27°C° 0 mm 1 mps 752 mmHg 86%
08:00 +28°C° 0 mm 1 mps 752 mmHg 82%
09:00 +29°C° 0.1 mm 1 mps 752 mmHg 76%
10:00 +31°C° 0.1 mm 1 mps 752 mmHg 69%
11:00 +32°C° 0.1 mm 1 mps 752 mmHg 62%
12:00 +33°C° 0.1 mm 1 mps 752 mmHg 58%
13:00 +34°C° 0.1 mm 1 mps 751 mmHg 55%
14:00 +34°C° 0.1 mm 1 mps 750 mmHg 51%
15:00 +34°C° 0.2 mm 1 mps 750 mmHg 56%
16:00 +33°C° 0.2 mm 1 mps 749 mmHg 61%
17:00 +32°C° 0.2 mm 1 mps 749 mmHg 66%
18:00 +31°C° 0.1 mm 1 mps 750 mmHg 69%
19:00 +29°C° 0.1 mm 1 mps 750 mmHg 72%
20:00 +28°C° 0.1 mm 1 mps 751 mmHg 76%
21:00 +27°C° 0.1 mm 1 mps 751 mmHg 77%
22:00 +27°C° 0.1 mm 1 mps 752 mmHg 79%
23:00 +26°C° 0.1 mm 1 mps 752 mmHg 81%

Tomorrow, 15 July, Wednesday

Time Temperature Precipitation Wind Pressure Humidity
00:00 +26°C° 0.2 mm 1 mps 752 mmHg 83%
01:00 +26°C° 0.2 mm 1 mps 751 mmHg 85%
02:00 +25°C° 0.2 mm 1 mps 751 mmHg 86%
03:00 +25°C° 0 mm 1 mps 751 mmHg 87%
04:00 +25°C° 0 mm 2 mps 751 mmHg 87%
05:00 +25°C° 0 mm 2 mps 751 mmHg 87%
06:00 +26°C° 0.1 mm 2 mps 751 mmHg 85%
07:00 +27°C° 0.1 mm 2 mps 752 mmHg 82%
08:00 +28°C° 0.1 mm 2 mps 752 mmHg 80%
09:00 +29°C° 0.5 mm 2 mps 752 mmHg 74%
10:00 +31°C° 0.5 mm 2 mps 752 mmHg 67%
11:00 +33°C° 0.5 mm 3 mps 752 mmHg 61%
12:00 +32°C° 0.3 mm 2 mps 751 mmHg 61%
13:00 +32°C° 0.3 mm 2 mps 750 mmHg 61%
14:00 +34°C° 0.3 mm 2 mps 750 mmHg 61%
15:00 +32°C° 0.4 mm 2 mps 749 mmHg 63%
16:00 +32°C° 0.4 mm 2 mps 749 mmHg 66%
17:00 +32°C° 0.4 mm 1 mps 749 mmHg 68%
18:00 +30°C° 0.2 mm 1 mps 749 mmHg 72%
19:00 +29°C° 0.2 mm 1 mps 750 mmHg 76%
20:00 +27°C° 0.2 mm 1 mps 751 mmHg 81%
21:00 +27°C° 0.2 mm 1 mps 751 mmHg 82%
22:00 +27°C° 0.2 mm 1 mps 751 mmHg 84%
23:00 +26°C° 0.2 mm 1 mps 751 mmHg 85%

Day after tomorrow, 16 July, Thursday

Time Temperature Precipitation Wind Pressure Humidity
00:00 +26°C° 0.2 mm 1 mps 751 mmHg 86%
01:00 +26°C° 0.2 mm 1 mps 751 mmHg 87%
02:00 +25°C° 0.2 mm 1 mps 750 mmHg 89%
03:00 +25°C° 0.1 mm 1 mps 750 mmHg 89%
04:00 +25°C° 0.1 mm 1 mps 750 mmHg 90%
05:00 +25°C° 0.1 mm 2 mps 750 mmHg 91%
06:00 +26°C° 0 mm 2 mps 751 mmHg 88%
07:00 +27°C° 0 mm 2 mps 752 mmHg 85%
08:00 +28°C° 0 mm 2 mps 752 mmHg 82%
09:00 +29°C° 0.5 mm 3 mps 752 mmHg 77%
10:00 +30°C° 0.5 mm 3 mps 752 mmHg 72%
11:00 +33°C° 0.5 mm 3 mps 752 mmHg 67%
12:00 +33°C° 0.3 mm 3 mps 751 mmHg 65%
13:00 +34°C° 0.3 mm 3 mps 751 mmHg 63%
14:00 +34°C° 0.3 mm 2 mps 750 mmHg 61%
15:00 +32°C° 0.3 mm 2 mps 750 mmHg 65%
16:00 +32°C° 0.3 mm 2 mps 749 mmHg 69%
17:00 +31°C° 0.3 mm 2 mps 749 mmHg 72%
18:00 +30°C° 0.2 mm 2 mps 750 mmHg 76%
19:00 +29°C° 0.2 mm 2 mps 750 mmHg 79%
20:00 +27°C° 0.2 mm 1 mps 751 mmHg 83%
21:00 +27°C° 0.1 mm 1 mps 751 mmHg 84%
22:00 +26°C° 0.1 mm 1 mps 751 mmHg 85%
23:00 +26°C° 0.1 mm 1 mps 752 mmHg 85%

17 July, Friday

Time Temperature Precipitation Wind Pressure Humidity
00:00 +26°C° 0.4 mm 1 mps 751 mmHg 87%
01:00 +25°C° 0.4 mm 1 mps 751 mmHg 89%
02:00 +25°C° 0.4 mm 2 mps 750 mmHg 91%
03:00 +25°C° 0.2 mm 2 mps 751 mmHg 92%
04:00 +25°C° 0.2 mm 2 mps 751 mmHg 92%
05:00 +25°C° 0.2 mm 2 mps 751 mmHg 92%
06:00 +26°C° 0.1 mm 2 mps 751 mmHg 89%
07:00 +27°C° 0.1 mm 3 mps 752 mmHg 86%
08:00 +28°C° 0.1 mm 3 mps 752 mmHg 84%
09:00 +29°C° 0.1 mm 4 mps 752 mmHg 76%
10:00 +32°C° 0.1 mm 4 mps 752 mmHg 69%
11:00 +33°C° 0.1 mm 4 mps 752 mmHg 62%
12:00 +34°C° 0.2 mm 4 mps 751 mmHg 61%
13:00 +34°C° 0.2 mm 4 mps 750 mmHg 60%
14:00 +34°C° 0.2 mm 3 mps 750 mmHg 59%
15:00 +34°C° 0.5 mm 3 mps 749 mmHg 63%
16:00 +33°C° 0.5 mm 3 mps 749 mmHg 67%
17:00 +31°C° 0.5 mm 2 mps 749 mmHg 71%
18:00 +30°C° 0.1 mm 2 mps 749 mmHg 76%
19:00 +28°C° 0.1 mm 2 mps 750 mmHg 80%
20:00 +27°C° 0.1 mm 2 mps 750 mmHg 84%
21:00 +27°C° 0 mm 2 mps 751 mmHg 84%
22:00 +26°C° 0 mm 1 mps 751 mmHg 84%
23:00 +26°C° 0 mm 1 mps 751 mmHg 84%

18 July, Saturday

Time Temperature Precipitation Wind Pressure Humidity
00:00 +26°C° 0 mm 2 mps 751 mmHg 85%
01:00 +26°C° 0 mm 2 mps 750 mmHg 86%
02:00 +26°C° 0 mm 2 mps 750 mmHg 86%
03:00 +25°C° 0.6 mm 2 mps 750 mmHg 88%
04:00 +25°C° 0.6 mm 2 mps 750 mmHg 90%
05:00 +25°C° 0.6 mm 3 mps 750 mmHg 93%
06:00 +26°C° 0.4 mm 3 mps 751 mmHg 89%
07:00 +27°C° 0.4 mm 3 mps 751 mmHg 86%
08:00 +28°C° 0.4 mm 3 mps 752 mmHg 83%
09:00 +29°C° 0.7 mm 3 mps 752 mmHg 79%
10:00 +30°C° 0.7 mm 3 mps 752 mmHg 74%
11:00 +31°C° 0.7 mm 3 mps 751 mmHg 70%
12:00 +33°C° 0.3 mm 3 mps 751 mmHg 66%
13:00 +34°C° 0.3 mm 2 mps 750 mmHg 61%
14:00 +34°C° 0.3 mm 2 mps 749 mmHg 57%
15:00 +34°C° 0.7 mm 2 mps 749 mmHg 62%
16:00 +32°C° 0.7 mm 2 mps 749 mmHg 67%
17:00 +31°C° 0.7 mm 1 mps 748 mmHg 72%
18:00 +30°C° 0.2 mm 1 mps 749 mmHg 76%
19:00 +28°C° 0.2 mm 1 mps 749 mmHg 79%
20:00 +27°C° 0.2 mm 1 mps 750 mmHg 83%
21:00 +27°C° 0 mm 1 mps 750 mmHg 83%
22:00 +27°C° 0 mm 1 mps 750 mmHg 83%
23:00 +26°C° 0 mm 2 mps 751 mmHg 84%

19 July, Sunday

Time Temperature Precipitation Wind Pressure Humidity
00:00 +26°C° 0.4 mm 2 mps 750 mmHg 86%
01:00 +26°C° 0.4 mm 2 mps 750 mmHg 88%
02:00 +25°C° 0.4 mm 2 mps 750 mmHg 90%
03:00 +25°C° 0.5 mm 2 mps 750 mmHg 91%
04:00 +25°C° 0.5 mm 2 mps 750 mmHg 92%
05:00 +25°C° 0.5 mm 2 mps 750 mmHg 93%
06:00 +26°C° 0.5 mm 2 mps 751 mmHg 91%
07:00 +26°C° 0.5 mm 2 mps 751 mmHg 90%
08:00 +27°C° 0.5 mm 2 mps 752 mmHg 88%
09:00 +28°C° 0.8 mm 2 mps 751 mmHg 80%
10:00 +30°C° 0.8 mm 3 mps 751 mmHg 73%
11:00 +33°C° 0.8 mm 3 mps 751 mmHg 66%
12:00 +33°C° 0.8 mm 3 mps 750 mmHg 65%
13:00 +32°C° 0.8 mm 2 mps 749 mmHg 65%
14:00 +32°C° 0.8 mm 2 mps 749 mmHg 64%
15:00 +32°C° 0.5 mm 2 mps 748 mmHg 67%
16:00 +32°C° 0.5 mm 2 mps 748 mmHg 70%
17:00 +31°C° 0.5 mm 2 mps 748 mmHg 73%
18:00 +30°C° 0.1 mm 2 mps 748 mmHg 76%
19:00 +28°C° 0.1 mm 2 mps 749 mmHg 79%
20:00 +27°C° 0.1 mm 2 mps 749 mmHg 83%
21:00 +27°C° 0.1 mm 2 mps 750 mmHg 83%
22:00 +26°C° 0.1 mm 2 mps 750 mmHg 84%
23:00 +26°C° 0.1 mm 1 mps 750 mmHg 85%
Show more